Pensacola, FL

2:41 AM CST on January 24, 2018 (GMT -0600)
Pensacola Regional

Weather History for KPNS - October, 2013

Change the Weather History Date:

Saturday, October 19, 2013

  Actual Average Record
Temperature  
Mean Temperature 68 °F 69 °F  
Max Temperature 73 °F 78 °F 88 °F (2006)
Min Temperature 63 °F 59 °F 39 °F (1989)
Degree Days  
Heating Degree Days 0 1  
Month to date heating degree days 0 9  
Since 1 July heating degree days 0 10  
Cooling Degree Days 3 5  
Month to date cooling degree days 195 133  
Year to date cooling degree days 2653 2503  
Growing Degree Days 19 (Base 50)    
Moisture  
Dew Point 60 °F    
Average Humidity 77    
Maximum Humidity 87    
Minimum Humidity 66    
Precipitation  
Precipitation 0.01 in 0.15 in 3.36 in (2007)
Month to date precipitation 1.75 3.24  
Year to date precipitation 65.41 53.99  
Sea Level Pressure  
Sea Level Pressure 29.96 in    
Wind  
Wind Speed 6 mph (North)    
Max Wind Speed 17 mph    
Max Gust Speed 22 mph    
Visibility 10 miles    
Events Rain    
T = Trace of Precipitation, MM = Missing Value Source: NWS Daily Summary

Daily Weather History Graph

Daily Weather History Graph

Search for Another Location

Airport or City:

Trip Planner

Search our weather history database for the weather conditions in past years. The results will help you decide how hot, cold, wet, or windy it might be!

Date:

Astronomy

Oct. 19, 2013 Rise Set
Actual Time 6:53 AM CDT 6:12 PM CDT
Civil Twilight 6:29 AM CDT 6:37 PM CDT
Nautical Twilight 6:01 AM CDT 7:05 PM CDT
Astronomical Twilight 5:33 AM CDT 7:33 PM CDT
Moon 6:45 PM CDT (10/19) 7:27 AM CDT (10/19)
Length of Visible Light 12h 07m
Length of Day
11h 19m
Waxing Gibbous, 99% of the Moon is Illuminated
Oct 19
Waxing Gibbous
Oct 26
Last Quarter
Nov 3
New
Nov 9
First Quarter
Nov 17
Full

Hourly Weather History & Observations

Time (CDT) Temp. Dew Point Humidity Pressure Visibility Wind Dir Wind Speed Gust Speed Precip Events Conditions
12:53 AM 69.1 °F 64.9 °F 87% 29.97 in 10.0 mi NNW 5.8 mph - N/A   Mostly Cloudy
1:03 AM 69.8 °F 64.4 °F 83% 29.96 in 10.0 mi North 4.6 mph - N/A   Scattered Clouds
1:53 AM 68.0 °F 63.0 °F 84% 29.95 in 10.0 mi North 4.6 mph - N/A   Clear
2:53 AM 66.9 °F 63.0 °F 87% 29.94 in 10.0 mi North 4.6 mph - N/A   Overcast
3:53 AM 68.0 °F 62.1 °F 81% 29.94 in 10.0 mi Calm Calm - N/A   Overcast
4:53 AM 68.0 °F 61.0 °F 78% 29.94 in 10.0 mi North 4.6 mph - N/A   Mostly Cloudy
5:53 AM 66.0 °F 62.1 °F 87% 29.94 in 10.0 mi NE 4.6 mph - 0.00 in Rain Light Rain
6:53 AM 66.0 °F 60.1 °F 81% 29.92 in 10.0 mi NE 5.8 mph - 0.00 in   Mostly Cloudy
7:53 AM 66.9 °F 61.0 °F 81% 29.93 in 10.0 mi Calm Calm - 0.00 in   Partly Cloudy
8:53 AM 66.0 °F 61.0 °F 84% 29.98 in 10.0 mi NNW 13.8 mph - 0.00 in   Mostly Cloudy
9:53 AM 69.1 °F 60.1 °F 73% 30.00 in 10.0 mi NNW 10.4 mph - 0.00 in   Mostly Cloudy
10:53 AM 72.0 °F 59.0 °F 64% 30.01 in 10.0 mi North 13.8 mph 20.7 mph N/A   Partly Cloudy
11:53 AM 72.0 °F 59.0 °F 64% 29.98 in 10.0 mi NNE 9.2 mph - N/A   Overcast
12:53 PM 71.1 °F 59.0 °F 66% 29.96 in 10.0 mi NNE 4.6 mph - N/A   Scattered Clouds
1:53 PM 71.1 °F 62.1 °F 73% 29.94 in 10.0 mi Calm Calm - 0.00 in Rain Light Rain
2:53 PM 71.1 °F 62.1 °F 73% 29.94 in 10.0 mi Calm Calm - 0.01 in   Mostly Cloudy
3:53 PM 72.0 °F 62.1 °F 71% 29.94 in 10.0 mi NW 8.1 mph - N/A   Overcast
4:16 PM 71.6 °F 62.6 °F 73% 29.93 in 10.0 mi North 6.9 mph - N/A   Overcast
4:53 PM 68.0 °F 61.0 °F 78% 29.95 in 10.0 mi North 11.5 mph - N/A   Overcast
5:53 PM 66.9 °F 61.0 °F 81% 29.95 in 10.0 mi North 9.2 mph - N/A   Overcast
6:42 PM 66.2 °F 60.8 °F 83% 29.95 in 10.0 mi North 9.2 mph - N/A   Overcast
6:53 PM 66.9 °F 61.0 °F 81% 29.96 in 10.0 mi North 5.8 mph - N/A   Overcast
7:25 PM 66.2 °F 60.8 °F 83% 29.96 in 10.0 mi North 8.1 mph - 0.00 in   Overcast
7:32 PM 66.2 °F 59.0 °F 78% 29.96 in 10.0 mi North 6.9 mph - 0.00 in   Overcast
7:53 PM 66.9 °F 55.9 °F 68% 29.98 in 10.0 mi NNE 6.9 mph - 0.00 in   Overcast
8:53 PM 66.0 °F 57.0 °F 73% 29.99 in 10.0 mi NNE 6.9 mph - N/A   Overcast
9:53 PM 66.0 °F 57.0 °F 73% 30.00 in 10.0 mi North 5.8 mph - N/A   Overcast
10:53 PM 66.0 °F 55.0 °F 68% 30.00 in 10.0 mi Variable 3.5 mph - N/A   Overcast
11:53 PM 64.9 °F 55.9 °F 73% 29.99 in 10.0 mi North 5.8 mph - N/A   Mostly Cloudy